Regional Weather Roundup
Issued by NWS Green Bay, WI

Home | Current Version | Previous Version | Graphics & Text | Print | Product List | Glossary Off
Versions: 1 2 3 4 5 6 7 8 9 10 11 12 13 14 15 16 17 18 19 20 21 22 23 24 25 26 27 28 29 30 31 32 33 34 35 36 37 38 39 40 41 42 43 44 45 46 47 48 49 50

000
ASUS43 KGRB 202059
RWRGRB

NORTH-CENTRAL AND NORTHEAST WISCONSIN REGIONAL WEATHER ROUNDUP
NATIONAL WEATHER SERVICE GREEN BAY WI
400 PM CDT SUN APR 20 2014

WIZ005-009-010>012-018-019-202200-
NORTH CENTRAL WISCONSIN

CITY           SKY/WX    TMP DP  RH WIND       PRES   REMARKS
IRONWOOD       SUNNY     61  37  41 N10       29.96F
MANITOWISH WTR NOT AVBL
ARBOR VITAE    NOT AVBL
EAGLE RIVER    NOT AVBL
LAND O LAKES   NOT AVBL
RHINELANDER    CLOUDY    62  49  62 S9        30.02F
PHILLIPS       NOT AVBL
ANTIGO         NOT AVBL
TOMAHAWK       NOT AVBL
MERRILL        NOT AVBL
$$

WIZ013-073-202200-
NORTHEAST WISCONSIN

CITY           SKY/WX    TMP DP  RH WIND       PRES   REMARKS
IRON MOUNTAIN  PTSUNNY   60  49  66 S10       29.99F
MARINETTE      CLOUDY    50  46  87 SW9       30.05F
$$

WIZ017-030-035>037-045-202200-
CENTRAL WISCONSIN

CITY           SKY/WX    TMP DP  RH WIND       PRES   REMARKS
MEDFORD        NOT AVBL
WAUSAU         CLOUDY    57  50  77 S3        30.03S
MOSINEE        NOT AVBL
MARSHFIELD     CLOUDY    59  53  80 SW10      30.04S
WISC RAPIDS    CLOUDY    58  53  84 SW6       30.07S
STEVENS POINT  NOT AVBL
WAUPACA        NOT AVBL
SHAWANO        NOT AVBL
CLINTONVILLE   NOT AVBL
$$

WIZ038-039-048-051-202200-
FOX VALLEY

CITY           SKY/WX    TMP DP  RH WIND       PRES   REMARKS
NWS GREEN BAY  LGT RAIN  57  48  72 S6        30.07F
APPLETON       CLOUDY    57  46  67 VRB5      30.08F
OSHKOSH        LGT RAIN  61  53  75 CALM      30.08S
FOND DU LAC    CLOUDY    68  43  40 CALM      30.07F
$$

WIZ022-050-052-202200-
EAST CENTRAL WISCONSIN

CITY           SKY/WX    TMP DP  RH WIND       PRES   REMARKS
STURGEON BAY   CLOUDY    43  37  81 S7        30.08F
MANITOWOC      NOT AVBL
SHEBOYGAN      CLOUDY    63  42  46 SE5       30.08F
$$

LMZ563-521-522-541>543-202200-
LAKESHORE

STATION/POSITION TIME  TEMP    WIND        PRES    VSBY  WAVE
                       AIR SEA DIR/SP/G                  HT/PER
                 (UTC) (F)     (DEG/KT/KT) (MB)    (MI)  (FT/S)
SHEBOYGAN LKSHOR 2000   43     150/ 11/ 11 1020.1F
KEWAUNEE LKSHORE 2000   39     170/  8/  9 1019.5F
NORTHPORT PIER   2000   40     160/  7/ 11 1018.6S
SISTER BAY LKSHO 2000   44     160/  6/  8   N/A
MENOMINEE LKSHOR 2000   41     180/  9/ 13 1018.8F
$$



USA.gov is the U.S. government's official web portal to all federal, state and local government web resources and services.